Regional Weather Roundup
Issued by NWS

Home | Current Version | Previous Version | Text Only | Print | Product List | Glossary Off
Versions: 1 2 3 4 5 6 7 8 9 10 11 12 13 14 15 16 17 18 19 20 21 22 23 24 25 26 27 28 29 30 31 32 33 34 35 36 37 38 39 40 41 42 43 44 45 46 47 48 49 50

000
ASUS44 KMEG 011700
RWRTN
TENNESSEE HOURLY STATE WEATHER ROUNDUP
NATIONAL WEATHER SERVICE MEMPHIS TN
1200 PM CDT MON JUN 01 2015

TNZ002-004-019-021-049-052-054-088>092-011800-
WEST TENNESSEE

CITY           SKY/WX    TMP DP  RH WIND       PRES   REMARKS
MEMPHIS INTL   CLOUDY    67  60  78 N7        30.12R
NWS MEMPHIS      N/A     65 N/A N/A MISG        N/A
JACKSON        CLOUDY    67  60  78 N9        30.10S
DYERSBURG      CLOUDY    66  48  52 N6        30.12S
PARIS          CLOUDY    63  57  82 N7        30.11R
LEXINGTON      CLOUDY    64  61  88 NW5       30.08S
$$

TNZ008-025-027-028-033-062-065-066-011800-
NORTH MIDDLE TENNESSEE

CITY           SKY/WX    TMP DP  RH WIND       PRES   REMARKS
NASHVILLE      CLOUDY    68  64  87 N3        30.08S FOG
CLARKSVILLE    CLOUDY    65  61  87 N10       30.09S
COOKEVILLE     PTSUNNY   75  66  73 W7        30.06S
CROSSVILLE     CLOUDY    72  63  73 VRB3      30.10S
$$

TNZ061-075-076-078-094-096-097-011800-
SOUTH MIDDLE TENNESSEE

CITY           SKY/WX    TMP DP  RH WIND       PRES   REMARKS
FAYETTEVILLE   CLOUDY   N/A N/A N/A MISG      30.07S
TULLAHOMA      PTSUNNY   73  64  73 S8        30.09S
WINCHESTER     PTSUNNY   75  64  69 S5        30.08S
MCMINNVILLE    PTSUNNY   75  66  73 SW7       30.07F
COLUMBIA       CLOUDY    70  66  88 NW10      30.06R
SHELBYVILLE    CLOUDY    75  68  78 VRB6      30.07F
$$

TNZ017-018-042-046-047-011800-
NORTHEAST TENNESSEE

CITY           SKY/WX    TMP DP  RH WIND       PRES   REMARKS
TRI CITIES     PTSUNNY   80  62  54 VRB7      30.08S
ELIZABETHTON   MOSUNNY   75  63  64 W5        30.08S
$$

TNZ012-013-036-069-073-074-011800-
CENTRAL EAST TENNESSEE

CITY           SKY/WX    TMP DP  RH WIND       PRES   REMARKS
KNOXVILLE      CLOUDY    76  63  64 SW15      30.06S
OAK RIDGE      PTSUNNY   78  65  63 VRB6      30.07S
GATLINBURG     SUNNY     79  64  61 CALM      30.06F
$$

TNZ083-085-099-011800-
SOUTHEAST TENNESSEE

CITY           SKY/WX    TMP DP  RH WIND       PRES   REMARKS
CHATTANOOGA    CLOUDY    76  65  68 VRB7      30.08S
$$

SKY/WX REPORTED AS FAIR MEANS FEW OR NO CLOUDS BELOW
12 THOUSAND FEET.



USA.gov is the U.S. government's official web portal to all federal, state and local government web resources and services.